INTERCOSMOS 25

Last updated on Sun Apr 12 2026 00:02:17 GMT+0000 (Coordinated Universal Time)

1 21819U 91086A 26101.50967054 .00000876 00000+0 16593-3 0 9998 2 21819 82.5996 290.1618 1486074 46.2109 325.2637 12.12110021500667
UTC large
Height (km)
Speed (km/s)
/
Latitude / Longitude
Inclination (degrees)
Orbital Period (minutes)
Azimuth
Elevation
Range (km)
Doppler Factor

Next 0 passes for location: London (51.5072 / 0.1276)

Sorry there are no passes over London.
INTERCOSMOS 25